This demonstration page uses our WeatherBlox Daily Observations layout. Learn more.

Left ArrowRight Arrow

Hourly Observations for January 24, 2020

Temp ( °F °C ) Dew Point ( °F °C ) Humidity (%) Winds ( mph kmh ) Pressure ( in mb ) Visibility ( mi km ) Precip ( " mm )
12:53 am 00:53 Clear 32 0 27 -2.8 82 82 WNW 5 7 29.92 1013 10 16 0.00 0.00
1:53 am 01:53 Clear 32 0 28 -2.2 85 85 WSW 7 11 29.91 1013 10 16 0.00 0.00
2:53 am 02:53 Clear 33 0.6 29 -1.7 85 85 W 5 7 29.91 1013 10 16 0.00 0.00
3:53 am 03:53 Clear 32 0 28 -2.2 85 85 WSW 9 15 29.91 1013 10 16 0.00 0.00
4:53 am 04:53 Clear 32 0 28 -2.2 85 85 WSW 9 15 29.90 1013 10 16 0.00 0.00
5:53 am 05:53 Clear 32 0 28 -2.2 85 85 W 7 11 29.91 1013 10 16 0.00 0.00
6:53 am 06:53 Clear 36 2.2 31 -0.6 82 82 WSW 9 15 29.90 1013 10 16 0.00 0.00
7:53 am 07:53 Clear 36 2.2 30 -1.1 79 79 SW 14 22 29.88 1012 10 16 0.00 0.00
8:53 am 08:53 Sunny 33 0.6 29 -1.7 85 85 WSW 7 11 29.88 1012 10 16 0.00 0.00
9:53 am 09:53 Sunny 37 2.8 31 -0.6 79 79 WSW 7 11 29.88 1012 10 16 0.00 0.00
10:53 am 10:53 Sunny 45 7.2 34 1.1 66 66 NW 5 7 29.86 1011 10 16 0.00 0.00
11:53 am 11:53 Sunny 47 8.3 32 0 56 56 SW 16 26 29.84 1011 10 16 0.00 0.00
12:53 pm 12:53 Sunny 48 8.9 33 0.6 56 56 SW 17 28 29.83 1010 10 16 0.00 0.00
1:53 pm 13:53 Sunny 49 9.4 34 1.1 56 56 SW 15 24 29.80 1009 10 16 0.00 0.00
2:53 pm 14:53 Sunny 50 10 34 1.1 54 54 SW 6 9 29.79 1009 10 16 0.00 0.00
3:53 pm 15:53 Sunny 49 9.4 34 1.1 56 56 Calm 29.79 1009 10 16 0.00 0.00
4:53 pm 16:53 Sunny 44 6.7 33 0.6 65 65 SSW 8 13 29.80 1009 10 16 0.00 0.00
5:53 pm 17:53 Partly Cloudy 46 7.8 32 0 58 58 SSW 18 30 29.80 1009 10 16 0.00 0.00
6:53 pm 18:53 Cloudy 44 6.7 33 0.6 65 65 SW 14 22 29.81 1010 10 16 0.00 0.00
7:53 pm 19:53 Cloudy 44 6.7 33 0.6 65 65 SSW 17 28 29.82 1010 10 16 0.00 0.00
8:53 pm 20:53 Cloudy 42 5.6 33 0.6 71 71 SW 17 28 29.83 1010 10 16 0.00 0.00
9:53 pm 21:53 Clear 39 3.9 30 -1.1 70 70 SSW 20 31 29.83 1010 10 16 0.00 0.00
10:53 pm 22:53 Cloudy 39 3.9 30 -1.1 70 70 SW 20 31 29.82 1010 10 16 0.00 0.00
11:53 pm 23:53 Clear 39 3.9 29 -1.7 67 67 SW 18 30 29.83 1010 10 16 0.00 0.00

Powered by AerisWeather